DLH7XA LIEE-EDDM

Flight info

Callsign DLH7XA
Flight time 1h 38m
Altitude 37000
Route KOVAS DCT DEXUL DCT LABOM DCT ROMPO DCT IBROS DCT TINKU DCT ADOSA DCT GUNGO DCT SOTOV T101 BETOS BETOS1A
Aircraft A320/M-SDE2E3FGIJ1LORWXY/HB1

Departure

Time 2026-05-01 13:26
Airport Cagliari Elmas Airport (LIEE)

Arrival

Time 2026-05-01 15:04
Airport Munich Airport (EDDM)
Time Latitude Longitude Altitude Speed Heading
2026-05-01 13:07 39.25225 9.05901 15 ft 0 kts
2026-05-01 13:19 39.25212 9.05899 17 ft 4 kts
2026-05-01 13:19 39.25185 9.05895 18 ft 3 kts
2026-05-01 13:19 39.25138 9.05901 16 ft 4 kts 328°
2026-05-01 13:20 39.25121 9.05920 18 ft 3 kts 310°
2026-05-01 13:20 39.25104 9.05945 18 ft 2 kts 310°
2026-05-01 13:20 39.25102 9.05948 17 ft 0 kts 310°
2026-05-01 13:22 39.25108 9.05940 16 ft 5 kts 310°
2026-05-01 13:22 39.25149 9.05884 15 ft 10 kts 318°
2026-05-01 13:22 39.25199 9.05826 15 ft 11 kts 318°
2026-05-01 13:22 39.25282 9.05732 15 ft 19 kts 319°
2026-05-01 13:23 39.25373 9.05619 15 ft 17 kts 308°
2026-05-01 13:23 39.25404 9.05476 15 ft 17 kts 281°
2026-05-01 13:23 39.25468 9.05332 15 ft 21 kts 315°
2026-05-01 13:23 39.25579 9.05202 15 ft 22 kts 318°
2026-05-01 13:24 39.25699 9.05063 15 ft 24 kts 318°
2026-05-01 13:24 39.25827 9.04915 15 ft 26 kts 318°
2026-05-01 13:24 39.25966 9.04756 15 ft 28 kts 318°
2026-05-01 13:25 39.26124 9.04477 15 ft 15 kts 271°
2026-05-01 13:25 39.26065 9.04387 15 ft 11 kts 186°
2026-05-01 13:25 39.26003 9.04438 14 ft 18 kts 138°
2026-05-01 13:25 39.25731 9.04753 16 ft 89 kts 138°
2026-05-01 13:26 39.25109 9.05474 17 ft 148 kts 138°
2026-05-01 13:26 39.24577 9.06101 251 ft 159 kts 141°
2026-05-01 13:26 39.23495 9.07344 1253 ft 153 kts 137°
2026-05-01 13:26 39.22965 9.07952 1703 ft 158 kts 135°
2026-05-01 13:27 39.22092 9.08959 2090 ft 179 kts 134°
2026-05-01 13:27 39.21107 9.10106 2492 ft 202 kts 131°
2026-05-01 13:27 39.18653 9.12488 3545 ft 243 kts 162°
2026-05-01 13:28 39.15484 9.11080 5280 ft 254 kts 226°
2026-05-01 13:28 39.14322 9.09377 6166 ft 255 kts 240°
2026-05-01 13:29 39.13944 9.05069 7845 ft 246 kts 291°
2026-05-01 13:29 39.16120 9.01486 9021 ft 268 kts 320°
2026-05-01 13:30 39.21808 8.94935 12390 ft 282 kts 324°
2026-05-01 13:31 39.25450 8.92967 13599 ft 302 kts 354°
2026-05-01 13:31 39.32123 8.92503 15232 ft 329 kts 357°
2026-05-01 13:32 39.36711 8.92175 16602 ft 336 kts 356°
2026-05-01 13:33 39.43782 8.92551 18598 ft 348 kts 16°
2026-05-01 13:33 39.48190 8.95358 19776 ft 357 kts 26°
2026-05-01 13:34 39.52575 8.98501 20921 ft 364 kts 26°
2026-05-01 13:34 39.57070 9.01704 22028 ft 373 kts 25°
2026-05-01 13:35 39.61664 9.04988 23129 ft 381 kts 25°
2026-05-01 13:35 39.64013 9.06600 23669 ft 384 kts 20°
2026-05-01 13:35 39.69124 9.08597 24637 ft 385 kts 11°
2026-05-01 13:36 39.71718 9.09462 25190 ft 385 kts 11°
2026-05-01 13:36 39.74321 9.10332 25649 ft 387 kts 10°
2026-05-01 13:36 39.79570 9.12092 26520 ft 392 kts 10°
2026-05-01 13:37 39.82218 9.12983 26926 ft 395 kts 10°
2026-05-01 13:37 39.84891 9.13886 27326 ft 398 kts 10°
2026-05-01 13:37 39.87544 9.15040 27704 ft 405 kts 15°
2026-05-01 13:37 39.90190 9.16359 28096 ft 409 kts 15°
2026-05-01 13:38 39.95533 9.19013 28853 ft 414 kts 15°
2026-05-01 13:38 39.98239 9.20360 29225 ft 418 kts 15°
2026-05-01 13:38 40.00964 9.21718 29572 ft 421 kts 15°
2026-05-01 13:39 40.03711 9.23086 29878 ft 424 kts 14°
2026-05-01 13:39 40.06477 9.24468 30265 ft 427 kts 14°
2026-05-01 13:39 40.09223 9.25847 30553 ft 430 kts 15°
2026-05-01 13:39 40.12057 9.27271 30875 ft 432 kts 15°
2026-05-01 13:40 40.14863 9.28683 31225 ft 433 kts 15°
2026-05-01 13:40 40.17641 9.30077 31515 ft 434 kts 15°
2026-05-01 13:40 40.20468 9.31494 31797 ft 436 kts 15°
2026-05-01 13:40 40.23298 9.32917 32150 ft 435 kts 15°
2026-05-01 13:41 40.26122 9.34343 32521 ft 435 kts 15°
2026-05-01 13:41 40.28935 9.35769 32905 ft 434 kts 15°
2026-05-01 13:41 40.31749 9.37193 33281 ft 433 kts 15°
2026-05-01 13:41 40.34562 9.38615 33624 ft 433 kts 15°
2026-05-01 13:42 40.37371 9.40037 34013 ft 432 kts 15°
2026-05-01 13:42 40.40176 9.41454 34344 ft 432 kts 15°
2026-05-01 13:42 40.42979 9.42867 34645 ft 431 kts 15°
2026-05-01 13:42 40.45778 9.44276 34964 ft 430 kts 15°
2026-05-01 13:43 40.48571 9.45686 35281 ft 430 kts 15°
2026-05-01 13:43 40.51349 9.47094 35637 ft 427 kts 15°
2026-05-01 13:43 40.54112 9.48499 36021 ft 424 kts 15°
2026-05-01 13:43 40.56853 9.49897 36385 ft 421 kts 15°
2026-05-01 13:44 40.59581 9.51288 36689 ft 420 kts 15°
2026-05-01 13:44 40.62303 9.52673 36975 ft 419 kts 15°
2026-05-01 13:44 40.65023 9.54054 37197 ft 419 kts 15°
2026-05-01 13:45 40.70429 9.56806 37261 ft 415 kts 15°
2026-05-01 13:45 40.75793 9.59551 37261 ft 412 kts 15°
2026-05-01 13:46 40.81134 9.62276 37270 ft 412 kts 15°
2026-05-01 13:46 40.86471 9.65009 37279 ft 412 kts 15°
2026-05-01 13:47 40.91777 9.67740 37273 ft 412 kts 15°
2026-05-01 13:47 40.97143 9.70505 37296 ft 411 kts 15°
2026-05-01 13:48 41.02430 9.73242 37289 ft 410 kts 15°
2026-05-01 13:48 41.07740 9.75988 37283 ft 409 kts 15°
2026-05-01 13:49 41.13073 9.78545 37290 ft 406 kts 12°
2026-05-01 13:49 41.18485 9.80633 37288 ft 404 kts 10°
2026-05-01 13:50 41.23902 9.82634 37280 ft 404 kts 11°
2026-05-01 13:50 41.29303 9.84729 37312 ft 404 kts 11°
2026-05-01 13:51 41.34673 9.86882 37300 ft 403 kts 11°
2026-05-01 13:51 41.40033 9.89028 37298 ft 401 kts 12°
2026-05-01 13:52 41.45378 9.91157 37294 ft 400 kts 12°
2026-05-01 13:52 41.50714 9.93282 37288 ft 400 kts 12°
2026-05-01 13:53 41.56036 9.95408 37293 ft 399 kts 12°
2026-05-01 13:53 41.64014 9.98600 37287 ft 398 kts 12°
2026-05-01 13:54 41.69289 10.00712 37286 ft 398 kts 12°
2026-05-01 13:54 41.74624 10.02859 37282 ft 398 kts 12°
2026-05-01 13:55 41.79901 10.04912 37276 ft 395 kts
2026-05-01 13:55 41.85301 10.06227 37276 ft 394 kts
2026-05-01 13:56 41.90697 10.07531 37282 ft 394 kts
2026-05-01 13:56 41.96096 10.08856 37281 ft 394 kts
2026-05-01 13:57 42.00583 10.09956 37286 ft 394 kts
2026-05-01 13:57 42.06881 10.11490 37289 ft 393 kts
2026-05-01 13:58 42.12260 10.12803 37285 ft 393 kts
2026-05-01 13:58 42.17642 10.14122 37296 ft 393 kts
2026-05-01 13:59 42.23016 10.15442 37287 ft 392 kts
2026-05-01 13:59 42.28380 10.16761 37278 ft 392 kts
2026-05-01 14:00 42.33743 10.18081 37283 ft 391 kts
2026-05-01 14:00 42.39066 10.19392 37281 ft 391 kts
2026-05-01 14:01 42.44416 10.20713 37318 ft 391 kts
2026-05-01 14:01 42.49759 10.22032 37308 ft 389 kts
2026-05-01 14:02 42.55078 10.23346 37300 ft 388 kts
2026-05-01 14:02 42.60379 10.24665 37294 ft 387 kts
2026-05-01 14:03 42.65674 10.25994 37294 ft 387 kts
2026-05-01 14:03 42.70963 10.27313 37289 ft 386 kts
2026-05-01 14:04 42.76242 10.28629 37277 ft 386 kts
2026-05-01 14:04 42.80633 10.29723 37288 ft 385 kts
2026-05-01 14:05 42.86755 10.31260 37282 ft 384 kts
2026-05-01 14:05 42.92015 10.32579 37280 ft 384 kts
2026-05-01 14:06 42.97265 10.33898 37289 ft 384 kts
2026-05-01 14:06 43.02517 10.35225 37286 ft 384 kts
2026-05-01 14:07 43.07765 10.36549 37280 ft 383 kts
2026-05-01 14:08 43.15627 10.38534 37279 ft 383 kts
2026-05-01 14:08 43.20873 10.39869 37270 ft 383 kts
2026-05-01 14:09 43.26118 10.41205 37267 ft 384 kts
2026-05-01 14:09 43.31371 10.42534 37273 ft 384 kts
2026-05-01 14:10 43.36624 10.43867 37274 ft 384 kts
2026-05-01 14:10 43.41881 10.45213 37273 ft 384 kts
2026-05-01 14:11 43.47102 10.46546 37275 ft 384 kts
2026-05-01 14:11 43.54994 10.48572 37271 ft 384 kts
2026-05-01 14:12 43.60255 10.49914 37262 ft 385 kts
2026-05-01 14:12 43.65528 10.51271 37261 ft 385 kts
2026-05-01 14:13 43.69950 10.52419 37261 ft 386 kts
2026-05-01 14:13 43.76081 10.53999 37255 ft 386 kts
2026-05-01 14:14 43.81379 10.55348 37259 ft 387 kts
2026-05-01 14:14 43.86691 10.56670 37267 ft 388 kts
2026-05-01 14:15 43.92009 10.57993 37313 ft 388 kts
2026-05-01 14:15 43.97316 10.59327 37331 ft 387 kts
2026-05-01 14:16 44.02616 10.60664 37338 ft 386 kts
2026-05-01 14:16 44.07899 10.61993 37342 ft 386 kts
2026-05-01 14:17 44.13175 10.63325 37331 ft 386 kts
2026-05-01 14:17 44.18429 10.64655 37324 ft 386 kts
2026-05-01 14:18 44.23724 10.65998 37330 ft 387 kts
2026-05-01 14:18 44.28159 10.67128 37337 ft 387 kts
2026-05-01 14:19 44.33424 10.68476 37341 ft 388 kts
2026-05-01 14:19 44.39623 10.70060 37346 ft 388 kts
2026-05-01 14:20 44.46682 10.71865 37348 ft 387 kts
2026-05-01 14:21 44.51991 10.73219 37332 ft 388 kts
2026-05-01 14:21 44.57315 10.74591 37337 ft 390 kts
2026-05-01 14:22 44.65331 10.76650 37340 ft 391 kts
2026-05-01 14:22 44.70681 10.78027 37339 ft 392 kts
2026-05-01 14:23 44.76047 10.79415 37337 ft 392 kts
2026-05-01 14:23 44.81386 10.80796 37343 ft 393 kts
2026-05-01 14:24 44.86760 10.82196 37348 ft 393 kts
2026-05-01 14:24 44.92145 10.83597 37350 ft 394 kts
2026-05-01 14:25 44.97535 10.85002 37351 ft 394 kts
2026-05-01 14:25 45.02922 10.86406 37345 ft 394 kts
2026-05-01 14:26 45.11019 10.88524 37349 ft 394 kts 10°
2026-05-01 14:27 45.16413 10.89939 37348 ft 395 kts 10°
2026-05-01 14:27 45.21815 10.91362 37348 ft 395 kts 10°
2026-05-01 14:28 45.29926 10.93486 37343 ft 395 kts 10°
2026-05-01 14:28 45.35331 10.94914 37343 ft 396 kts 10°
2026-05-01 14:29 45.40745 10.96346 37343 ft 396 kts 10°
2026-05-01 14:30 45.51541 10.99203 37346 ft 396 kts 11°
2026-05-01 14:31 45.59675 11.01380 37346 ft 396 kts 10°
2026-05-01 14:31 45.65109 11.02679 37337 ft 397 kts
2026-05-01 14:32 45.70631 11.02959 37317 ft 397 kts
2026-05-01 14:32 45.76164 11.03226 37330 ft 399 kts
2026-05-01 14:33 45.81706 11.03499 37333 ft 398 kts
2026-05-01 14:33 45.87255 11.03776 37335 ft 399 kts
2026-05-01 14:34 45.92814 11.04053 37336 ft 400 kts
2026-05-01 14:34 45.98374 11.04312 37338 ft 400 kts
2026-05-01 14:35 46.03943 11.04582 37346 ft 400 kts
2026-05-01 14:35 46.09513 11.04862 37352 ft 401 kts
2026-05-01 14:36 46.15088 11.05143 37356 ft 401 kts
2026-05-01 14:36 46.20631 11.05425 37366 ft 401 kts
2026-05-01 14:37 46.26207 11.05704 37374 ft 401 kts
2026-05-01 14:37 46.31791 11.05984 37375 ft 401 kts
2026-05-01 14:38 46.37366 11.06272 37375 ft 401 kts
2026-05-01 14:38 46.42931 11.06790 37308 ft 400 kts 11°
2026-05-01 14:39 46.48408 11.08286 37259 ft 404 kts 11°
2026-05-01 14:39 46.51193 11.09060 36985 ft 409 kts 11°
2026-05-01 14:39 46.53994 11.09835 36713 ft 409 kts 11°
2026-05-01 14:39 46.56790 11.10607 36456 ft 408 kts 11°
2026-05-01 14:40 46.59578 11.11375 36197 ft 407 kts 11°
2026-05-01 14:40 46.62346 11.12139 35929 ft 404 kts 11°
2026-05-01 14:40 46.65088 11.12899 35508 ft 399 kts 12°
2026-05-01 14:40 46.67806 11.13656 35028 ft 396 kts 12°
2026-05-01 14:41 46.70501 11.14406 34534 ft 392 kts 12°
2026-05-01 14:41 46.73174 11.15146 34018 ft 389 kts 12°
2026-05-01 14:41 46.75823 11.15877 33538 ft 385 kts 12°
2026-05-01 14:41 46.78436 11.16601 33075 ft 381 kts 12°
2026-05-01 14:42 46.81028 11.17325 32611 ft 378 kts 12°
2026-05-01 14:42 46.83598 11.18043 32156 ft 374 kts 12°
2026-05-01 14:42 46.86146 11.18756 31705 ft 370 kts 12°
2026-05-01 14:42 46.88656 11.19458 31263 ft 365 kts 12°
2026-05-01 14:43 46.91139 11.20151 30836 ft 361 kts 12°
2026-05-01 14:43 46.93601 11.20836 30416 ft 359 kts 11°
2026-05-01 14:43 46.96085 11.21182 29943 ft 360 kts
2026-05-01 14:43 46.98558 11.21342 29507 ft 361 kts
2026-05-01 14:44 47.01056 11.21507 29074 ft 359 kts
2026-05-01 14:44 47.06018 11.21837 28204 ft 354 kts
2026-05-01 14:44 47.08474 11.22000 27778 ft 352 kts
2026-05-01 14:45 47.10915 11.22165 27347 ft 350 kts
2026-05-01 14:45 47.15742 11.22493 26497 ft 345 kts
2026-05-01 14:45 47.18135 11.22660 26088 ft 343 kts
2026-05-01 14:46 47.20512 11.22824 25663 ft 340 kts
2026-05-01 14:46 47.25220 11.23139 24837 ft 337 kts
2026-05-01 14:46 47.27561 11.23292 24417 ft 336 kts
2026-05-01 14:47 47.29894 11.23450 24032 ft 335 kts
2026-05-01 14:47 47.32211 11.23611 23589 ft 333 kts
2026-05-01 14:47 47.34525 11.23771 23176 ft 332 kts
2026-05-01 14:48 47.39109 11.24089 22374 ft 329 kts
2026-05-01 14:48 47.41392 11.24246 21969 ft 327 kts
2026-05-01 14:48 47.45927 11.24553 21162 ft 325 kts
2026-05-01 14:49 47.50424 11.24860 20389 ft 323 kts
2026-05-01 14:49 47.54894 11.25158 19614 ft 321 kts
2026-05-01 14:50 47.57870 11.25236 19097 ft 319 kts
2026-05-01 14:50 47.63767 11.25151 18041 ft 317 kts
2026-05-01 14:51 47.65964 11.25118 17659 ft 315 kts
2026-05-01 14:51 47.70317 11.25077 16899 ft 312 kts
2026-05-01 14:52 47.74580 11.25637 16146 ft 305 kts 19°
2026-05-01 14:52 47.76565 11.26706 15786 ft 303 kts 22°
2026-05-01 14:52 47.80498 11.28907 15048 ft 301 kts 22°
2026-05-01 14:53 47.82454 11.29995 14691 ft 300 kts 22°
2026-05-01 14:53 47.84411 11.31084 14334 ft 300 kts 22°
2026-05-01 14:53 47.86362 11.32168 13946 ft 299 kts 22°
2026-05-01 14:53 47.88319 11.33182 13571 ft 298 kts 17°
2026-05-01 14:54 47.90367 11.33609 13202 ft 297 kts
2026-05-01 14:54 47.92421 11.33777 12841 ft 295 kts
2026-05-01 14:54 47.94464 11.33951 12476 ft 293 kts
2026-05-01 14:54 47.96496 11.34130 12108 ft 291 kts
2026-05-01 14:55 47.98516 11.34304 11740 ft 290 kts
2026-05-01 14:55 48.00527 11.34481 11374 ft 289 kts
2026-05-01 14:55 48.02531 11.34674 11006 ft 288 kts
2026-05-01 14:55 48.04531 11.34854 10644 ft 287 kts
2026-05-01 14:56 48.06516 11.35025 10283 ft 286 kts
2026-05-01 14:56 48.08495 11.35208 9896 ft 284 kts
2026-05-01 14:56 48.10469 11.35402 9504 ft 284 kts
2026-05-01 14:56 48.12410 11.35575 9120 ft 283 kts
2026-05-01 14:57 48.14373 11.35736 8732 ft 282 kts
2026-05-01 14:57 48.18291 11.36103 7972 ft 278 kts
2026-05-01 14:57 48.20188 11.36277 7608 ft 276 kts
2026-05-01 14:58 48.22093 11.36452 7243 ft 273 kts
2026-05-01 14:58 48.23932 11.36976 6918 ft 266 kts 25°
2026-05-01 14:58 48.25438 11.38426 6676 ft 253 kts 47°
2026-05-01 14:58 48.26673 11.40251 6414 ft 244 kts 47°
2026-05-01 14:59 48.27834 11.41987 6153 ft 228 kts 47°
2026-05-01 14:59 48.28927 11.43622 5880 ft 218 kts 49°
2026-05-01 14:59 48.29996 11.45225 5602 ft 217 kts 49°
2026-05-01 14:59 48.31065 11.46829 5328 ft 218 kts 49°
2026-05-01 15:00 48.32165 11.50920 4685 ft 214 kts 84°
2026-05-01 15:00 48.32338 11.53129 4390 ft 211 kts 84°
2026-05-01 15:00 48.32511 11.55315 4105 ft 210 kts 83°
2026-05-01 15:01 48.32681 11.57473 3838 ft 207 kts 84°
2026-05-01 15:01 48.32847 11.59563 3567 ft 196 kts 84°
2026-05-01 15:01 48.33003 11.61535 3316 ft 185 kts 83°
2026-05-01 15:01 48.33150 11.63399 3095 ft 174 kts 83°
2026-05-01 15:02 48.33287 11.65138 2853 ft 161 kts 83°
2026-05-01 15:02 48.33330 11.65690 2772 ft 155 kts 84°
2026-05-01 15:02 48.33525 11.68171 2456 ft 133 kts 83°
2026-05-01 15:02 48.33632 11.69551 2262 ft 134 kts 85°
2026-05-01 15:03 48.33741 11.70981 2106 ft 140 kts 85°
2026-05-01 15:03 48.33861 11.72438 1879 ft 138 kts 82°
2026-05-01 15:03 48.33969 11.73857 1709 ft 136 kts 83°
2026-05-01 15:03 48.34081 11.75273 1520 ft 137 kts 83°
2026-05-01 15:04 48.34184 11.76614 1485 ft 113 kts 83°
2026-05-01 15:04 48.34254 11.77517 1485 ft 66 kts 83°
2026-05-01 15:04 48.34299 11.78068 1485 ft 36 kts 78°
2026-05-01 15:04 48.34342 11.78262 1480 ft 12 kts 64°
2026-05-01 15:05 48.34390 11.78379 1483 ft 14 kts 54°
2026-05-01 15:05 48.34454 11.78507 1479 ft 16 kts 53°
2026-05-01 15:05 48.34525 11.78651 1479 ft 18 kts 53°
2026-05-01 15:05 48.34627 11.78736 1485 ft 16 kts
2026-05-01 15:06 48.34714 11.78740 1481 ft 11 kts 30°
2026-05-01 15:06 48.34737 11.78849 1482 ft 13 kts 84°
2026-05-01 15:06 48.34747 11.78989 1485 ft 15 kts 83°
2026-05-01 15:06 48.34760 11.79151 1485 ft 17 kts 83°
2026-05-01 15:07 48.34774 11.79330 1481 ft 18 kts 83°
2026-05-01 15:07 48.34787 11.79502 1485 ft 16 kts 83°
2026-05-01 15:07 48.34805 11.79662 1483 ft 13 kts 58°
2026-05-01 15:07 48.34897 11.79686 1482 ft 15 kts 353°
2026-05-01 15:08 48.35012 11.79667 1485 ft 18 kts 354°
2026-05-01 15:08 48.35143 11.79644 1485 ft 20 kts 353°
2026-05-01 15:08 48.35292 11.79618 1485 ft 22 kts 353°
2026-05-01 15:08 48.35419 11.79596 1476 ft 16 kts 353°
2026-05-01 15:09 48.35517 11.79579 1485 ft 14 kts 353°
2026-05-01 15:09 48.35598 11.79570 1477 ft 7 kts 18°
2026-05-01 15:09 48.35614 11.79640 1485 ft 9 kts 84°
2026-05-01 15:09 48.35619 11.79703 1485 ft 4 kts 83°
2026-05-01 15:10 48.35619 11.79707 1485 ft 0 kts 84°